Lexington Weather

Lexington, Massachusetts, USA

34°F
4/16/2021 10:51am 
  • Lexington Conditions: Snow, Fog, Overcast
  • Temperature: 34.0°F / 1.1°CWarmer 0.2°F than last hour.
  • Dew Point: 32.7°FIncreased 0.2°Fsince last hour.
  • Relative Humidity: 95
  • Wind: Wind from N N 2 mph, 10-min avg: 1 mph, gust: 4 mph
  • Barometer: 29.47 inFalling 0.03  inHg/hr Falling Slowly
  • Visibility: ½ mile
  • Snow Today: 1.3 in
  •   

Regional Weather Roundup
for Boston / Norton, MA

        
000
ASUS41 KBOX 102104
RWRBOX

REGIONAL WEATHER ROUNDUP
NATIONAL WEATHER SERVICE BOSTON/NORTON MA
500 PM EDT SAT APR 10 2021

NOTE:  "FAIR" INDICATES FEW OR NO CLOUDS BELOW 12,000 FEET WITH NO 
SIGNIFICANT WEATHER AND/OR OBSTRUCTIONS TO VISIBILITY.

MAZALL-102200-
EASTERN MASSACHUSETTS
  
CITY           SKY/WX    TMP DP  RH WIND       PRES   REMARKS
BOSTON         MOSUNNY   75  51  43 SW10      29.78F                  
BEVERLY        NOT AVBL                                               
LAWRENCE       MOSUNNY   77  50  38 VRB5      29.79F                  
BEDFORD        MOSUNNY   77  51  40 W12       29.77F                  
BLUE HILL        N/A     71  52  50 S13G21    29.80F                  
NORWOOD        SUNNY     74  52  46 S12G18    29.79F                  
MARSHFIELD     SUNNY     72  54  53 SW8G23    29.80F                  
PLYMOUTH       SUNNY     65  51  60 S9G18     29.83F                  
TAUNTON        SUNNY     68  52  56 S10       29.83F                  
NEW BEDFORD    SUNNY     62  50  64 SW14G22   29.86F                  
$$

MAZALL-102200-
CAPE COD AND THE ISLANDS
  
CITY           SKY/WX    TMP DP  RH WIND       PRES   REMARKS
FALMOUTH       NOT AVBL                                               
HYANNIS        MOSUNNY   58  49  72 SW18      29.86F                  
CHATHAM        CLOUDY    52  47  83 SW14G26   29.89F                  
PROVINCETOWN   SUNNY     55  49  80 SW18G28   29.84F                  
NANTUCKET      CLOUDY    50  47  89 SW12      29.91F                  
MARTHAS VNYRD  CLOUDY    53  49  86 SW13G20   29.89F                  
$$
 
MAZALL-102200-
CENTRAL AND WESTERN MASSACHUSETTS
  
CITY           SKY/WX    TMP DP  RH WIND       PRES   REMARKS
WORCESTER      SUNNY     72  49  44 SW14      29.82F                  
FITCHBURG      SUNNY     76  49  38 W6        29.79F                  
ORANGE         MOSUNNY   74  52  46 S12       29.80F                  
SPRINGFIELD    MOSUNNY   77  51  39 S10       29.79F                  
WESTFIELD      MOSUNNY   75  50  41 SW9       29.79F                  
NORTH ADAMS    SUNNY     77  43  29 W8        29.79F                  
PITTSFIELD     SUNNY     73  43  33 SW9       29.81F                  
$$
 
RIZALL-102200-
RHODE ISLAND
  
CITY           SKY/WX    TMP DP  RH WIND       PRES   REMARKS
PROVIDENCE     SUNNY     70  52  52 SW16G22   29.84F                  
NEWPORT        SUNNY     56  49  77 SW9G18    29.88F                  
BLOCK ISLAND   CLOUDY    53  50  89 SW15      29.91F FOG              
SMITHFIELD     MOSUNNY   71  54  54 SW8G16    29.83F                  
WESTERLY       MOSUNNY   55  49  80 SW10      29.90F                  
$$
 
CTZALL-102200-
CONNECTICUT
  
CITY           SKY/WX    TMP DP  RH WIND       PRES   REMARKS
BRADLEY INTL   MOSUNNY   74  51  44 S17       29.82F                  
HARTFORD       MOSUNNY   71  53  52 S12G20    29.84F                  
BRIDGEPORT     CLOUDY    62  51  67 S5        29.88F                  
DANBURY        CLOUDY    69  52  54 SW8       29.88F                  
GROTON         SUNNY     55  49  80 S5        29.89F                  
NEW HAVEN      CLOUDY    61  52  72 S6        29.88F                  
CHESTER        CLOUDY    66  54  63 VRB5G13   29.88F                  
MERIDEN        PTSUNNY   67  51  56 S13       29.86F                  
WILLIMANTIC    PTSUNNY   69  52  54 SW15G22   29.85F                  
OXFORD         PTSUNNY   67  56  67 VRB7      29.88F                  
$$

MEZ002-015-021-024-NHZ003-005-008-011-012-014-VTZ005-008-102200-
NORTHERN NEW ENGLAND
  
CITY           SKY/WX    TMP DP  RH WIND       PRES   REMARKS
PORTLAND ME    PTSUNNY   61  46  57 S10       29.79F                  
BANGOR ME      PTSUNNY   66  47  50 S14       29.79S                  
CONCORD NH     MOSUNNY   78  47  33 S7        29.77F                  
MANCHESTER NH  PTSUNNY   77  47  34 S7        29.76F                  
NASHUA NH      MOSUNNY   78  49  35 W6        29.77F                  
PORTSMOUTH NH  PTSUNNY   68  46  44 SE12      29.79F                  
JAFFREY NH     MOSUNNY   73  47  39 S6        29.81F                  
KEENE NH       MOSUNNY   76  49  38 S6        29.78F                  
BURLINGTON VT  MOSUNNY   76  45  33 S6        29.77F                  
MT. WASHINGTON CLOUDY    46  36  66 W14         N/A                   
$$

NYZ052-076-102200-
EASTERN NEW YORK
  
CITY           SKY/WX    TMP DP  RH WIND       PRES   REMARKS
ALBANY         MOSUNNY   73  48  41 VRB3      29.79F                  
NEW YORK CITY  PTSUNNY   65  52  62 S12       29.88F                  
$$
 
ANZALL-102200-
MARINE OBSERVATIONS
  
STATION/POSITION TIME  TEMP    WIND        PRES    VSBY  WAVE
                       AIR SEA DIR/SP/G                  HT/PER
                 (UTC) (F)     (DEG/KT/KT) (MB)    (MI)  (FT/S)
BOSTON BUOY      2040   53 46  160/ 16/ 17 1009.7F
BUZZARDS BAY     2000          210/ 18/ 19 1013.5F
NANTUCKET SOUND  2040      46                N/A
MASS BAY-STELLWA 2004   51     150/ 10/ 10 1008.9F  1 7/8  4/11
ISLE OF SHOALS   2000   60     160/ 22/ 22 1009.0F
S OF BLOCK IS    2026      47                N/A           4/11
$$

......................KEY.........................
  SKY/WX - SKY CONDITION/PRESENT WEATHER
  TMP    - TEMPERATURE IN FAHRENHEIT
  DWPT   - DEWPOINT IN FAHRENHEIT
  RH     - RELATIVE HUMIDITY IN PERCENT
  WIND   - DIRECTION AND SPEED IN MPH
  PRES   - MEAN SEA LEVEL PRESSURE IN INCHES OF HG
  WCI    - WIND CHILL INDEX
  VSB    - VISIBILITY IN MILES
  HX     - HEAT INDEX
  TC     - TEMPERATURE IN CELSIUS
  VRB    - VARIABLE WIND DIRECTION
  N/A    - NOT AVAILABLE
  
      

Other recent Regional Weather Roundups

Fri Apr 16, 10:05am

Fri Apr 16, 9:04am

Fri Apr 16, 8:04am

Fri Apr 16, 7:04am

Fri Apr 16, 6:04am

Fri Apr 16, 5:04am

Fri Apr 16, 4:04am

Fri Apr 16, 3:04am

Fri Apr 16, 2:04am

Fri Apr 16, 1:04am

Fri Apr 16, 12:04am

Thu Apr 15, 11:05pm

Thu Apr 15, 10:04pm

Thu Apr 15, 9:04pm

Thu Apr 15, 8:04pm

Thu Apr 15, 7:05pm

Thu Apr 15, 6:04pm

Thu Apr 15, 5:05pm

Thu Apr 15, 4:04pm

Thu Apr 15, 3:05pm

Thu Apr 15, 2:04pm

Thu Apr 15, 1:05pm

Thu Apr 15, 12:04pm

Thu Apr 15, 11:04am

Thu Apr 15, 10:05am

Thu Apr 15, 9:04am

Thu Apr 15, 8:04am

Thu Apr 15, 7:04am

Thu Apr 15, 6:04am

Thu Apr 15, 5:04am

Thu Apr 15, 4:04am

Thu Apr 15, 3:04am

Thu Apr 15, 2:04am

Thu Apr 15, 1:04am

Thu Apr 15, 12:04am

Wed Apr 14, 11:04pm

Wed Apr 14, 10:04pm

Wed Apr 14, 9:04pm

Wed Apr 14, 8:04pm

Wed Apr 14, 7:04pm

Wed Apr 14, 6:04pm

Wed Apr 14, 5:05pm

Wed Apr 14, 4:04pm

Wed Apr 14, 3:05pm

Wed Apr 14, 2:04pm

Wed Apr 14, 1:05pm

Wed Apr 14, 12:04pm

Wed Apr 14, 11:04am

Wed Apr 14, 10:04am

Wed Apr 14, 9:04am

Wed Apr 14, 8:04am

Wed Apr 14, 7:04am

Wed Apr 14, 6:04am

Wed Apr 14, 5:04am

Wed Apr 14, 4:04am

Wed Apr 14, 3:04am

Wed Apr 14, 2:04am

Wed Apr 14, 1:04am

Wed Apr 14, 12:04am

Tue Apr 13, 11:04pm

Tue Apr 13, 10:05pm

Tue Apr 13, 9:05pm

Tue Apr 13, 8:05pm

Tue Apr 13, 7:04pm

Tue Apr 13, 6:04pm

Tue Apr 13, 5:05pm

Tue Apr 13, 4:04pm

Tue Apr 13, 3:04pm

Tue Apr 13, 2:05pm

Tue Apr 13, 1:04pm

Tue Apr 13, 12:05pm

Tue Apr 13, 11:05am

Tue Apr 13, 10:04am

Tue Apr 13, 9:04am

Tue Apr 13, 8:04am

Tue Apr 13, 7:04am

Tue Apr 13, 6:04am

Tue Apr 13, 5:04am

Tue Apr 13, 4:04am

Tue Apr 13, 3:04am

Tue Apr 13, 2:04am

Tue Apr 13, 1:04am

Tue Apr 13, 12:05am

Mon Apr 12, 11:04pm

Mon Apr 12, 10:04pm

Mon Apr 12, 9:04pm

Mon Apr 12, 8:04pm

Mon Apr 12, 7:05pm

Mon Apr 12, 6:04pm

Mon Apr 12, 5:04pm

Mon Apr 12, 4:04pm

Mon Apr 12, 3:05pm

Mon Apr 12, 2:04pm

Mon Apr 12, 1:05pm

Mon Apr 12, 12:04pm

Mon Apr 12, 11:04am

Mon Apr 12, 10:04am

Mon Apr 12, 9:04am

Mon Apr 12, 8:04am

Mon Apr 12, 7:04am

Mon Apr 12, 6:04am

Mon Apr 12, 5:04am

Mon Apr 12, 4:04am

Mon Apr 12, 3:04am

Mon Apr 12, 2:04am

Mon Apr 12, 1:05am

Mon Apr 12, 12:04am

Sun Apr 11, 11:04pm

Sun Apr 11, 10:04pm

Sun Apr 11, 9:04pm

Sun Apr 11, 8:04pm

Sun Apr 11, 7:04pm

Sun Apr 11, 6:05pm

Sun Apr 11, 5:05pm

Sun Apr 11, 4:04pm

Sun Apr 11, 3:05pm

Sun Apr 11, 2:05pm

Sun Apr 11, 1:05pm

Sun Apr 11, 12:04pm

Sun Apr 11, 11:05am

Sun Apr 11, 10:05am

Sun Apr 11, 9:04am

Sun Apr 11, 8:04am

Sun Apr 11, 7:04am

Sun Apr 11, 6:04am

Sun Apr 11, 5:04am

Sun Apr 11, 4:04am

Sun Apr 11, 3:04am

Sun Apr 11, 2:04am

Sun Apr 11, 1:05am

Sun Apr 11, 12:04am

Sat Apr 10, 11:05pm

Sat Apr 10, 10:04pm

Sat Apr 10, 9:04pm

Sat Apr 10, 8:04pm

Sat Apr 10, 7:05pm

Sat Apr 10, 6:04pm

Sat Apr 10, 4:04pm

Sat Apr 10, 3:04pm

Sat Apr 10, 2:05pm

Sat Apr 10, 1:04pm

Sat Apr 10, 12:04pm

Sat Apr 10, 11:04am

Sat Apr 10, 10:04am

Sat Apr 10, 9:04am

Sat Apr 10, 8:04am

Sat Apr 10, 7:04am

Sat Apr 10, 6:04am

Sat Apr 10, 5:04am

Sat Apr 10, 4:04am

Sat Apr 10, 3:04am

Sat Apr 10, 2:04am

Sat Apr 10, 1:05am

Sat Apr 10, 12:04am

Fri Apr 9, 11:04pm

Fri Apr 9, 10:05pm

Fri Apr 9, 9:04pm

Fri Apr 9, 8:05pm

Fri Apr 9, 7:05pm

Fri Apr 9, 6:04pm

Fri Apr 9, 5:04pm

Fri Apr 9, 4:05pm

Fri Apr 9, 3:05pm

Fri Apr 9, 2:04pm

Fri Apr 9, 1:04pm

Fri Apr 9, 12:04pm

Fri Apr 9, 11:05am

Meta data:

ID: 3b6bc62e-5fd2-4ad3-b12b-d383c8401b45
Link: https://api.weather.gov/products/3b6bc62e-5fd2-4ad3-b12b-d383c8401b45